Portada
METAR-TAF:

METAR-TAF

Aeroports :

Marshall County Airport

Lacon, Illinois, Estats Units d'Amèrica

latitud: 41-01-09N, longitud: 089-23-11W, altitud: 173 m

Observació

L'informe es va fer fa 32 minuts, a les 14:35 UTC
Vent 3 kt del Est
Temperatura 17°C
Humitat 72%
Pressió 1017 hPa
Visibilitat: 6.4 km
Cel cobert a una alçada de 3300 ft
calitja

METAR: KC75 241435Z AUTO 10003KT 4SM HZ OVC033 17/12 A3003 RMK AO2 T01710121

Hora: 10:07 (15:07 UTC)


TAF: manca

Observacions i pronòstics meteorològics de més de 4000 aeroports (METAR i TAF).

Les estacions disponibles són els punts grocs i vermells al mapa.

Posi el ratolí al punt desitjat per veure el nom de l'estació.

Feu clic per veure les observacions i els pronòstics meteorològics.

Per canviar el mapa: feu clic els botons verds amb una creu de color negre per apropar; al botó verd amb un guió per allunyar la imatge; o en les fletxes verdes per a mapes adjacents.


METAR-TAF: